Location: Elbart
(49.6135°N, 11.9134°E)
Time: 17:02:39
(UTC+00:00)

Cosmos 2221 - Pass Details

Date: 09 April 2020
Orbit: 592 x 617 km, 82.5° (Epoch: 28 May)

Event Time Altitude Azimuth Distance (km) Brightness Sun altitude
Exits shadow 21:46:35 35° 12° (NNE) 995 3.9 -29.3°
Drops below altitude 10° 21:49:11 10° 11° (N) 1,982 5.8 -29.5°
Sets 21:51:24 0° 11° (N) 2,888 6.8 -29.6°
